Skip Page Navigation
NASA JPL Caltech
NASA Logo - Jet Propulsion Laboratory + View the NASA Portal
+ Near-Earth Object (NEO) Program
Search JPL
JPL Home Earth Solar System Stars & Galaxies Technology
JPL Solar System Dynamics
BODIES ORBITS EPHEMERIDES TOOLS PHYSICAL DATA DISCOVERY FAQ SITE MAP
JPL Small-Body Database Browser
Search: [ help ]  
163051 (2001 YJ4)
Classification: Apollo [NEO, PHA]          SPK-ID: 2163051
Ephemeris | Orbit Diagram | Orbital Elements | Physical Parameters | Discovery Circumstances | Close-Approach Data ]

[ hide orbit diagram ]
Orbit Diagram
Note: Make sure you have Java enabled on your browser to see the applet. This applet is provided as a 3D orbit visualization tool. The applet was implemented using 2-body methods, and hence should not be used for determining accurate long-term trajectories (over several years or decades) or planetary encounter circumstances. For accurate long-term ephemerides, please instead use our Horizons system.
Orbit Viewer

Additional Notes: the orbits shown in the applet are color coded. The planets are white lines, and the asteroid/comet is a blue line. The bright white line indicates the portion of the orbit that is above the ecliptic plane, and the darker portion is below the ecliptic plane. Likewise for the asteroid/comet orbit, the light blue indicates the portion above the ecliptic plane, and the dark blue the portion below the ecliptic plane.

Orbit Viewer applet originally written and kindly provided by Osamu Ajiki (AstroArts), and further modified by Ron Baalke (JPL).


Orbital Elements at Epoch 2456400.5 (2013-Apr-18.0) TDB
Reference: JPL 102 (heliocentric ecliptic J2000)
 Element Value Uncertainty (1-sigma)   Units 
e .5691717184799182 4.6711e-08  
a 2.270980659465425 1.1816e-08 AU
q .9784026948828312 1.0681e-07 AU
i 9.280738532552922 7.883e-06 deg
node 247.8778000324574 6.0958e-05 deg
peri 322.3356449802133 6.2217e-05 deg
M 79.28308832656309 1.2392e-05 deg
tp 2456125.206068220057
(2012-Jul-16.70606822)
4.1055e-05 JED
period 1250.024658885229
3.42
9.7561e-06
2.671e-08
d
yr
n .2879943187049188 2.2477e-09 deg/d
Q 3.563558624048019 1.8542e-08 AU
  Orbit Determination Parameters
   # obs. used (total)      352  
   data-arc span      12489 days (34.19 yr)  
   first obs. used      1978-02-05  
   last obs. used      2012-04-16  
   planetary ephem.      DE405  
   SB-pert. ephem.      SB405-CPV-2  
   condition code      0  
   fit RMS      .70313  
   data source      ORB  
   producer      Otto Matic  
   solution date      2013-Apr-29 15:39:53  

Additional Information
 Earth MOID = .0273644 AU 
 T_jup = 3.363 
[ show covariance matrix ]

Ephemeris | Orbit Diagram | Orbital Elements | Physical Parameters | Discovery Circumstances | Close-Approach Data ]

Physical Parameter Table
Parameter Symbol Value Units Sigma Reference Notes
absolute magnitude H 16.246 mag .70848 102 autocmod 2.5c

163051 (2001 YJ4)          Discovered 2001-Dec-22 by NEAT at Haleakala (608)
Reference: 20070926/Numbers.arcLast Updated: 2007-09-30

[ show close-approach data ]
Ephemeris | Orbit Diagram | Orbital Elements | Physical Parameters | Discovery Circumstances | Close-Approach Data ]
ABOUT SSD CREDITS/AWARDS PRIVACY/COPYRIGHT GLOSSARY LINKS
FirstGov 2013-May-25 07:29 UT
(server date/time)  
NASA Home Page
Site Manager:   Donald K. Yeomans
Webmaster  Alan B. Chamberlin